Regional Weather Roundup
Issued by NWS

Home | Current Version | Previous Version | Text Only | Print | Product List | Glossary On
Versions: 1 2 3 4 5 6 7 8 9 10 11 12 13 14 15 16 17 18 19 20 21 22 23 24 25 26 27 28 29 30 31 32 33 34 35 36 37 38 39 40 41 42 43 44 45 46 47 48 49 50
000
ASUS42 KTBW 241617
RWRFL
FLORIDA REGIONAL WEATHER ROUNDUP
NATIONAL WEATHER SERVICE TAMPA BAY RUSKIN FL
1200 PM EDT WED AUG 24 2016

NOTE: "FAIR" INDICATES FEW OR NO CLOUDS BELOW 12,000 FEET WITH NO
SIGNIFICANT WEATHER AND/OR OBSTRUCTIONS TO VISIBILITY.

FLZ001>010-012>015-112-114-115-241700-
PANHANDLE FLORIDA

CITY           SKY/WX    TMP DP  RH WIND       PRES   REMARKS
PENSACOLA      MOSUNNY   88  77  69 E7        30.17S HX 100
PENSACOLA NAS  PTSUNNY   86  79  79 E9        30.17R HX  99
MILTON NAS     MOSUNNY   88  77  69 SE8       30.18S HX 100
CRESTVIEW      PTSUNNY   89  76  65 VRB3      30.20S HX 100
DUKE FIELD     MOSUNNY   89  75  63 SE5       30.17F HX  98
VALPARAISO     MOSUNNY   88  77  69 SE7       30.17F HX 100
MARY ESTHER    MOSUNNY   88  76  67 SE7       30.16S HX  99
PANAMA CITY    PTSUNNY   88  77  69 E5        30.17S HX 100
TYNDALL AFB    MOSUNNY   88  78  72 VRB6      30.18S HX 101
APALACHICOLA   MOSUNNY   89  79  72 E9G23     30.17F HX 104

STATION/POSITION SKY/WX   TEMP    WIND        PRES    WAVE   SWELL
                          AIR SEA DIR/SP/G            HT/PER HT/PER
                          (F)     (DEG/KT/KT) (MB)    (FT/S) (FT/S)
30.1N   87.6W              85 88   90/ 12/ 14 1021.3R   1/ 3
29.2N   88.2W              86 89   70/  8/ 10 1020.9R
28.8N   86.0W              86 87  110/  8/ 10 1021.2    2/ 5   2/ 5
PANAMA CITY BEAC           85 86  110/  5/ 10 1022.4R
TOWER C                    84      90/ 15/ 17 1022.2F
28.5N   84.5W              86 87   80/ 12/ 16 1020.8F   2/ 5

$$
FLZ011-016>038-118-127-128-134-139-239-241700-
NORTH FLORIDA

CITY           SKY/WX    TMP DP  RH WIND       PRES   REMARKS
MARIANNA       PTSUNNY   85  77  77 E7        30.20F HX  95
TALLAHASSEE    PTSUNNY   90  75  61 E8        30.19F HX 100
PERRY          MOSUNNY   88  76  65 NE8       30.20S HX  99
CROSS CITY     PTSUNNY   88  75  66 NE9       30.18S HX  97
LAKE CITY      FAIR      86  72  62 NE7       30.20S
GAINESVILLE    MOSUNNY   90  72  55 E14       30.18S HX  97
WILLISTON      FAIR      90  75  62 NE8       30.18S HX 100
PALATKA        FAIR      90  72  55 E15       30.19R HX  96
MAYPORT NAS    MOSUNNY   89  71  55 NE16      30.21R HX  95
JACKSONVILLE   MOSUNNY   89  70  53 NE15      30.20S
FERNANDINA BEA FAIR      90  73  58 NE13G21   30.20F HX  98
ST AUGUSTINE   SUNNY     88  72  58 NE16      30.20S
PALM COAST     PTSUNNY   90  73  58 E16       30.18S HX  98

STATION/POSITION SKY/WX   TEMP    WIND        PRES    WAVE   SWELL
                          AIR SEA DIR/SP/G            HT/PER HT/PER
                          (F)     (DEG/KT/KT) (MB)    (FT/S) (FT/S)
SHELL POINT                86      80/  4/  7 1021.1
KEATON BEACH               86      70/ 10/ 12 1021.7F
CEDAR KEY                  86      60/ 14/ 16 1021.6F
FERNANDINA                 87 87   70/  4/ 11 1023.0R
30.7N   81.3W                 84                N/A     4/ 6
MAYPORT                    83 84   60/ 14/ 16 1023.3R
31.4N   80.9W              83 85   50/ 12/ 16 1023.1F   3/ 5   2/ 7
ST AUGUSTINE               83 83   40/ 14/ 16 1023.2R

$$
FLZ040-043>046-052-053-057-058-063-144-241700-
INTERIOR CENTRAL FLORIDA

CITY           SKY/WX    TMP DP  RH WIND       PRES   REMARKS
OCALA          PTSUNNY   88  72  58 NE8G17    30.17S
THE VILLAGES     N/A     90  77  66 MISG      30.06S HX 102
LEESBURG       MOSUNNY   88  76  67 NE8       30.16S HX  99
SANFORD        MOSUNNY   91  72  53 NE16G24   30.14S HX  98
ORLANDO EXEC   CLOUDY    78  76  93 SE6       30.15S
ORLANDO INTL   LGT RAIN  78  75  90 NE9       30.15F
KISSIMMEE      LGT RAIN  78  76  93 NE9       30.16R
WINTER HAVEN   PTSUNNY   85  75  72 NE7       30.14S
LAKELAND       PTSUNNY   84  79  84 E10       30.14R HX  96
BARTOW         PTSUNNY   84  77  79 NE12      30.14S
OKEECHOBEE     PTSUNNY   86  75  70 NE5       30.10S HX  95

$$
FLZ041-047-054-059-064-141-147-241700-
EAST CENTRAL FLORIDA

CITY           SKY/WX    TMP DP  RH WIND       PRES   REMARKS
ORMOND BEACH   MOSUNNY   86  73  66 NE15G23   30.17F
DAYTONA BEACH  PTSUNNY   90  75  61 NE18G24   30.17S HX 100
DELAND         MOSUNNY   88  72  58 NE14      30.16S
NEW SMYRNA BEA MOSUNNY   86  75  70 E9G17     30.17S HX  95
JFK SPACE CTR  CLOUDY    86  76  71 NE15G22   30.12F HX  96
TITUSVILLE     PTSUNNY   82  81  94 NE12      30.14S FOG     HX  95
CAPE CANAVERAL CLOUDY    81  77  89 VRB1      30.13S
PATRICK AFB    CLOUDY    82  79  90 NE13      30.12S
MELBOURNE      CLOUDY    84  79  85 NE16      30.12S HX  96
VERO BEACH     CLOUDY    87  78  74 NE10      30.10F HX 100
FT PIERCE      PTSUNNY   91  79  67 NE10      30.09  HX 107
STUART         MOSUNNY   91  81  70 NE13      30.11R HX 110

STATION/POSITION SKY/WX   TEMP    WIND        PRES    WAVE   SWELL
                          AIR SEA DIR/SP/G            HT/PER HT/PER
                          (F)     (DEG/KT/KT) (MB)    (FT/S) (FT/S)
28.5N   80.2W              82 82   60/ 12/ 14 1020.3R   4/ 8   3/ 8
TRIDENT PIER               80 85   90/ 11/ 16 1020.6R
28.4N   80.5W                 84                N/A     3/ 4
27.5N   80.2W                 83                N/A     2/ 4

$$
FLZ050-056-061-142-242-148-248-149-249-151-251-155-255-
160-260-241700-
WEST CENTRAL FLORIDA

CITY           SKY/WX    TMP DP  RH WIND       PRES   REMARKS
CRYSTAL RIVER  PTSUNNY   86  75  70 E8        30.15S HX  95
INVERNESS      FAIR      90  79  70 E8        30.15F HX 105
BROOKSVILLE    MOSUNNY   86  77  74 E13       30.15S HX  97
CLEARWATER AIR FAIR      88  77  70 NE9       30.13S HX 100
ST PETE CLEARW MOSUNNY   89  78  70 NE7       30.12F HX 103
TAMPA INTL     PTSUNNY   87  77  72 VRB7      30.13F HX  99
TAMPA EXEC     LGT RAIN  88  79  74 E6        30.14S HX 102
PLANT CITY     CLOUDY    88  81  79 NE10      30.15F HX 105
MACDILL AFB    MOSUNNY   90  82  77 E13       30.12F HX 111
PETER O KNIGHT PTSUNNY   91  81  70 E8        30.13S HX 110
ST PETERSBURG  MOSUNNY   83  77  82 E13       30.11S
SARASOTA       MOSUNNY   91  75  59 NE10      30.09F HX 101
VENICE         FAIR      91  77  62 NE10      30.10F HX 105

STATION/POSITION SKY/WX   TEMP    WIND        PRES    WAVE   SWELL
                          AIR SEA DIR/SP/G            HT/PER HT/PER
                          (F)     (DEG/KT/KT) (MB)    (FT/S) (FT/S)
27.3N   84.2W                 87                N/A     3/ 5
CLEARWATER BEACH           85 89   50/  8/ 10 1020.5R
MIDDLE TAMPA BAY                   50/ 11/ 13 1020.5R
VENICE                     88 87   50/ 10/ 13 1018.8F

$$
FLZ066-069-070-075>078-162-262-165-265-241700-
SOUTHWEST FLORIDA AND KEYS

CITY           SKY/WX    TMP DP  RH WIND       PRES   REMARKS
PUNTA GORDA    MOSUNNY   90  75  61 NE9       30.11S HX 100
FT MYERS       MOSUNNY   90  75  61 NE9       30.08S HX 100
SOUTHWEST INTL MOSUNNY   90  76  63 NE8       30.08F HX 101
NAPLES         MOSUNNY   89  77  67 NE10      30.07S HX 101
MARCO ISLAND   MOSUNNY   91  75  59 E6        30.07F HX 102
MARATHON       MOSUNNY   89  78  70 NE12      30.04F HX 103
KEY WEST NAS   PTSUNNY   88  79  74 E12       30.05  HX 103
KEY WEST INTL  PTSUNNY   86  79  79 NE8       30.05S HX  99

STATION/POSITION SKY/WX   TEMP    WIND        PRES    WAVE   SWELL
                          AIR SEA DIR/SP/G            HT/PER HT/PER
                          (F)     (DEG/KT/KT) (MB)    (FT/S) (FT/S)
NAPLES                        88              1018.4F
26.0N   85.6W              86 86   30/ 10/ 10 1019.9R   1/ 4
DRY TORTUGAS               78     210/ 13/ 14 1019.1R
SAND KEY                   85      80/  9/ 12 1018.2S
LONG KEY                   85 89   40/ 12/ 14 1017.8F

$$
FLZ067-068-071>074-168-172>174-241700-
SOUTHEAST FLORIDA

CITY           SKY/WX    TMP DP  RH WIND       PRES   REMARKS
W PALM BEACH   PTSUNNY   87  79  76 N7        30.09R THUNDER HX 101
FT LAUDER-EXEC PTSUNNY   91  75  59 NE12      30.07S HX 101
FT LAUDERDALE  RAIN      85  77  77 E10       30.07S HX  95
POMPANO BEACH  MOSUNNY   88  77  69 E10       30.07F HX 100
PEMBROKE PINES MOSUNNY   84  77  79 E12         N/A
OPA LOCKA      PTSUNNY   91  76  61 E12       30.07F HX 103
MIAMI          PTSUNNY   85  78  80 E8        30.07S HX  96
WEST KENDALL   CLOUDY    82  76  81 NE7       30.06F
HOMESTEAD      CLOUDY    82  76  80 NE8       30.05F

STATION/POSITION SKY/WX   TEMP    WIND        PRES    WAVE   SWELL
                          AIR SEA DIR/SP/G            HT/PER HT/PER
                          (F)     (DEG/KT/KT) (MB)    (FT/S) (FT/S)
PORT EVERGLADES            86      40/  7/  9 1018.3S
VIRGINIA KEY               83 90  160/  3/  5 1018.8R
LAKE WORTH                 87 86   80/  6/  7 1018.4S
FOWEY ROCKS                83 87   90/ 10/ 11 1018.3F
SETTLEMENT POINT           86      70/  6/  6 1018.8F

$$




USA.gov is the U.S. government's official web portal to all federal, state and local government web resources and services.